Location: Recife
(8.0585°S, 34.8848°W)
Time: 09:58:13
(UTC-03:00)

Transit 2A - Pass Details

Date: 23 April 2026
Orbit: 594 x 950 km, 66.7° (Epoch: 14 May)

Event Time Altitude Azimuth Distance (km) Brightness Sun altitude
Rises 06:03:23 0° 14° (NNE) 2,899 9.4 9.2°
Reaches altitude 10° 06:06:40 10° 39° (NE) 1,955 9.1 10.0°
Maximum altitude 06:08:57 14° 71° (ENE) 1,688 10.8 10.5°
Drops below altitude 10° 06:11:13 10° 103° (ESE) 1,929 9.4 11.1°
Sets 06:14:24 0° 128° (SE) 2,832 9.5 11.8°
